Year,Month,Day,Hour,Minute,Value (Times are PST for windspeed in km/hr)
2018,02,18,00,00,10.50
2018,02,18,00,01,11.20
2018,02,18,00,02,9.50
2018,02,18,00,03,9.80
2018,02,18,00,04,9.20
2018,02,18,00,05,6.40
2018,02,18,00,06,4.20
2018,02,18,00,07,5.90
2018,02,18,00,08,9.70
2018,02,18,00,09,10.40
2018,02,18,00,10,11.00
2018,02,18,00,11,10.20
2018,02,18,00,12,5.00
2018,02,18,00,13,4.50
2018,02,18,00,14,3.10
2018,02,18,00,15,5.60
2018,02,18,00,16,8.10
2018,02,18,00,17,8.30
2018,02,18,00,18,9.20
2018,02,18,00,19,8.30
2018,02,18,00,20,7.30
2018,02,18,00,21,1.50
2018,02,18,00,22,9.10
2018,02,18,00,23,6.50
2018,02,18,00,24,8.90
2018,02,18,00,25,13.10
2018,02,18,00,26,14.00
2018,02,18,00,27,10.60
2018,02,18,00,28,10.10
2018,02,18,00,29,6.90
2018,02,18,00,30,6.00
2018,02,18,00,31,4.90
2018,02,18,00,32,5.90
2018,02,18,00,33,3.20
2018,02,18,00,34,6.10
2018,02,18,00,35,5.30
2018,02,18,00,36,6.60
2018,02,18,00,37,7.00
2018,02,18,00,38,8.00
2018,02,18,00,39,9.30
2018,02,18,00,40,7.20
2018,02,18,00,41,5.60
2018,02,18,00,42,8.20
2018,02,18,00,43,10.00
2018,02,18,00,44,9.30
2018,02,18,00,45,10.50
2018,02,18,00,46,10.20
2018,02,18,00,47,11.80
2018,02,18,00,48,8.30
2018,02,18,00,49,11.00
2018,02,18,00,50,10.90
2018,02,18,00,51,8.50
2018,02,18,00,52,7.00
2018,02,18,00,53,8.50
2018,02,18,00,54,3.90
2018,02,18,00,55,6.10
2018,02,18,00,56,8.50
2018,02,18,00,57,10.50
2018,02,18,00,58,10.80
2018,02,18,00,59,11.20
2018,02,18,01,00,8.30
2018,02,18,01,01,5.00
2018,02,18,01,02,7.30
2018,02,18,01,03,5.50
2018,02,18,01,04,6.10
2018,02,18,01,05,3.40
2018,02,18,01,06,7.40
2018,02,18,01,07,6.10
2018,02,18,01,08,7.00
2018,02,18,01,09,4.80
2018,02,18,01,10,3.40
2018,02,18,01,11,6.20
2018,02,18,01,12,3.70
2018,02,18,01,13,4.70
2018,02,18,01,14,3.10
2018,02,18,01,15,8.40
2018,02,18,01,16,8.00
2018,02,18,01,17,5.10
2018,02,18,01,18,8.20
2018,02,18,01,19,15.70
2018,02,18,01,20,8.10
2018,02,18,01,21,6.40
2018,02,18,01,22,7.40
2018,02,18,01,23,5.40
2018,02,18,01,24,9.90
2018,02,18,01,25,4.60
2018,02,18,01,26,5.30
2018,02,18,01,27,6.70
2018,02,18,01,28,7.30
2018,02,18,01,29,6.40
2018,02,18,01,30,5.50
2018,02,18,01,31,6.70
2018,02,18,01,32,7.80
2018,02,18,01,33,6.60
2018,02,18,01,34,4.30
2018,02,18,01,35,6.60
2018,02,18,01,36,9.70
2018,02,18,01,37,9.20
2018,02,18,01,38,7.50
2018,02,18,01,39,13.20
2018,02,18,01,40,11.40
2018,02,18,01,41,8.50
2018,02,18,01,42,6.40
2018,02,18,01,43,12.20
2018,02,18,01,44,11.10
2018,02,18,01,45,11.30
2018,02,18,01,46,8.40
2018,02,18,01,47,10.00
2018,02,18,01,48,10.70
2018,02,18,01,49,6.20
2018,02,18,01,50,8.40
2018,02,18,01,51,18.40
2018,02,18,01,52,7.90
2018,02,18,01,53,10.40
2018,02,18,01,54,13.30
2018,02,18,01,55,13.20
2018,02,18,01,56,13.70
2018,02,18,01,57,10.20
2018,02,18,01,58,13.20
2018,02,18,01,59,11.40
2018,02,18,02,00,13.00
2018,02,18,02,01,14.70
2018,02,18,02,02,10.20
2018,02,18,02,03,9.60
2018,02,18,02,04,12.40
2018,02,18,02,05,10.00
2018,02,18,02,06,11.10
2018,02,18,02,07,7.30
2018,02,18,02,08,4.60
2018,02,18,02,09,7.00
2018,02,18,02,10,8.10
2018,02,18,02,11,9.10
2018,02,18,02,12,9.70
2018,02,18,02,13,12.20
2018,02,18,02,14,13.40
2018,02,18,02,15,10.80
2018,02,18,02,16,10.60
2018,02,18,02,17,6.20
2018,02,18,02,18,3.70
2018,02,18,02,19,6.60
2018,02,18,02,20,6.90
2018,02,18,02,21,9.30
2018,02,18,02,22,12.80
2018,02,18,02,23,15.30
2018,02,18,02,24,16.30
2018,02,18,02,25,14.40
2018,02,18,02,26,14.20
2018,02,18,02,27,9.60
2018,02,18,02,28,11.20
2018,02,18,02,29,12.20
2018,02,18,02,30,8.30
2018,02,18,02,31,10.40
2018,02,18,02,32,8.60
2018,02,18,02,33,11.60
2018,02,18,02,34,9.50
2018,02,18,02,35,11.70
2018,02,18,02,36,10.10
2018,02,18,02,37,11.30
2018,02,18,02,38,9.70
2018,02,18,02,39,10.40
2018,02,18,02,40,14.40
2018,02,18,02,41,10.50
2018,02,18,02,42,10.80
2018,02,18,02,43,8.30
2018,02,18,02,44,5.10
2018,02,18,02,45,7.50
2018,02,18,02,46,12.30
2018,02,18,02,47,9.70
2018,02,18,02,48,9.60
2018,02,18,02,49,15.10
2018,02,18,02,50,6.50
2018,02,18,02,51,10.40
2018,02,18,02,52,13.20
2018,02,18,02,53,13.60
2018,02,18,02,54,8.60
2018,02,18,02,55,9.70
2018,02,18,02,56,6.60
2018,02,18,02,57,11.60
2018,02,18,02,58,7.80
2018,02,18,02,59,12.10
2018,02,18,03,00,15.50
2018,02,18,03,01,14.50
2018,02,18,03,02,13.50
2018,02,18,03,03,14.00
2018,02,18,03,04,10.10
2018,02,18,03,05,10.50
2018,02,18,03,06,7.60
2018,02,18,03,07,11.90
2018,02,18,03,08,12.50
2018,02,18,03,09,9.80
2018,02,18,03,10,10.00
2018,02,18,03,11,13.80
2018,02,18,03,12,14.80
2018,02,18,03,13,10.40
2018,02,18,03,14,8.60
2018,02,18,03,15,5.30
2018,02,18,03,16,9.40
2018,02,18,03,17,8.00
2018,02,18,03,18,9.70
2018,02,18,03,19,7.50
2018,02,18,03,20,9.30
2018,02,18,03,21,3.90
2018,02,18,03,22,6.40
2018,02,18,03,23,5.70
2018,02,18,03,24,6.70
2018,02,18,03,25,8.90
2018,02,18,03,26,9.20
2018,02,18,03,27,3.40
2018,02,18,03,28,2.20
2018,02,18,03,29,4.80
2018,02,18,03,30,2.60
2018,02,18,03,31,4.10
2018,02,18,03,32,5.30
2018,02,18,03,33,7.40
2018,02,18,03,34,3.60
2018,02,18,03,35,9.20
2018,02,18,03,36,7.10
2018,02,18,03,37,5.00
2018,02,18,03,38,7.80
2018,02,18,03,39,1.90
2018,02,18,03,40,4.00
2018,02,18,03,41,2.60
2018,02,18,03,42,2.60
2018,02,18,03,43,7.50
2018,02,18,03,44,7.40
2018,02,18,03,45,11.90
2018,02,18,03,46,4.10
2018,02,18,03,47,4.20
2018,02,18,03,48,1.00
2018,02,18,03,49,0.60
2018,02,18,03,50,2.60
2018,02,18,03,51,0.80
2018,02,18,03,52,1.90
2018,02,18,03,53,2.10
2018,02,18,03,54,0.80
2018,02,18,03,55,1.40
2018,02,18,03,56,4.50
2018,02,18,03,57,4.70
2018,02,18,03,58,0.90
2018,02,18,03,59,1.40
2018,02,18,04,00,0.10
2018,02,18,04,01,3.10
2018,02,18,04,02,3.40
2018,02,18,04,03,6.80
2018,02,18,04,04,1.70
2018,02,18,04,05,2.50
2018,02,18,04,06,4.60
2018,02,18,04,07,2.60
2018,02,18,04,08,9.70
2018,02,18,04,09,3.90
2018,02,18,04,10,4.50
2018,02,18,04,11,5.30
2018,02,18,04,12,1.30
2018,02,18,04,13,1.20
2018,02,18,04,14,10.20
2018,02,18,04,15,13.60
2018,02,18,04,16,6.70
2018,02,18,04,17,4.80
2018,02,18,04,18,5.40
2018,02,18,04,19,5.50
2018,02,18,04,20,7.50
2018,02,18,04,21,9.20
2018,02,18,04,22,3.20
2018,02,18,04,23,9.50
2018,02,18,04,24,10.30
2018,02,18,04,25,15.60
2018,02,18,04,26,11.40
2018,02,18,04,27,6.60
2018,02,18,04,28,9.50
2018,02,18,04,29,4.50
2018,02,18,04,30,5.60
2018,02,18,04,31,6.90
2018,02,18,04,32,13.10
2018,02,18,04,33,10.60
2018,02,18,04,34,7.60
2018,02,18,04,35,3.30
2018,02,18,04,36,1.40
2018,02,18,04,37,0.60
2018,02,18,04,38,2.60
2018,02,18,04,39,3.30
2018,02,18,04,40,2.80
2018,02,18,04,41,8.30
2018,02,18,04,42,10.80
2018,02,18,04,43,11.30
2018,02,18,04,44,8.50
2018,02,18,04,45,5.30
2018,02,18,04,46,6.00
2018,02,18,04,47,11.40
2018,02,18,04,48,9.60
2018,02,18,04,49,6.80
2018,02,18,04,50,3.90
2018,02,18,04,51,1.60
2018,02,18,04,52,4.00
2018,02,18,04,53,7.10
2018,02,18,04,54,8.80
2018,02,18,04,55,5.70
2018,02,18,04,56,3.20
2018,02,18,04,57,1.30
2018,02,18,04,58,2.30
2018,02,18,04,59,1.10
2018,02,18,05,00,0.70
2018,02,18,05,01,0.40
2018,02,18,05,02,0.20
2018,02,18,05,03,0.20
2018,02,18,05,04,2.40
2018,02,18,05,05,1.20
2018,02,18,05,06,2.20
2018,02,18,05,07,2.30
2018,02,18,05,08,4.30
2018,02,18,05,09,2.30
2018,02,18,05,10,0.30
2018,02,18,05,11,1.40
2018,02,18,05,12,2.00
2018,02,18,05,13,3.50
2018,02,18,05,14,5.50
2018,02,18,05,15,2.90
2018,02,18,05,16,2.60
2018,02,18,05,17,0.10
2018,02,18,05,18,0.70
2018,02,18,05,19,1.10
2018,02,18,05,20,4.00
2018,02,18,05,21,13.00
2018,02,18,05,22,11.70
2018,02,18,05,23,11.30
2018,02,18,05,24,6.00
2018,02,18,05,25,0.40
2018,02,18,05,26,0.20
2018,02,18,05,27,0.20
2018,02,18,05,28,5.10
2018,02,18,05,29,13.20
2018,02,18,05,30,4.10
2018,02,18,05,31,0.10
2018,02,18,05,32,6.40
2018,02,18,05,33,11.80
2018,02,18,05,34,7.60
2018,02,18,05,35,3.10
2018,02,18,05,36,2.30
2018,02,18,05,37,7.40
2018,02,18,05,38,7.50
2018,02,18,05,39,7.50
2018,02,18,05,40,8.50
2018,02,18,05,41,7.20
2018,02,18,05,42,3.80
2018,02,18,05,43,0.70
2018,02,18,05,44,2.40
2018,02,18,05,45,4.40
2018,02,18,05,46,4.50
2018,02,18,05,47,1.20
2018,02,18,05,48,3.10
2018,02,18,05,49,5.20
2018,02,18,05,50,8.60
2018,02,18,05,51,2.30
2018,02,18,05,52,4.20
2018,02,18,05,53,5.20
2018,02,18,05,54,2.30
2018,02,18,05,55,3.70
2018,02,18,05,56,3.90
2018,02,18,05,57,3.70
2018,02,18,05,58,5.20
2018,02,18,05,59,3.10
2018,02,18,06,00,2.90
2018,02,18,06,01,0.90
2018,02,18,06,02,0.10
2018,02,18,06,03,0.10
2018,02,18,06,04,0.10
2018,02,18,06,05,0.00
2018,02,18,06,06,0.00
2018,02,18,06,07,3.10
2018,02,18,06,08,5.60
2018,02,18,06,09,3.90
2018,02,18,06,10,2.90
2018,02,18,06,11,2.10
2018,02,18,06,12,1.30
2018,02,18,06,13,0.30
2018,02,18,06,14,0.30
2018,02,18,06,15,2.30
2018,02,18,06,16,3.40
2018,02,18,06,17,0.00
2018,02,18,06,18,0.10
2018,02,18,06,19,6.00
2018,02,18,06,20,9.90
2018,02,18,06,21,7.50
2018,02,18,06,22,8.30
2018,02,18,06,23,7.20
2018,02,18,06,24,7.00
2018,02,18,06,25,8.50
2018,02,18,06,26,19.20
2018,02,18,06,27,9.90
2018,02,18,06,28,12.10
2018,02,18,06,29,14.10
2018,02,18,06,30,13.20
2018,02,18,06,31,5.80
2018,02,18,06,32,1.10
2018,02,18,06,33,3.20
2018,02,18,06,34,9.30
2018,02,18,06,35,14.10
2018,02,18,06,36,7.70
2018,02,18,06,37,5.00
2018,02,18,06,38,10.30
2018,02,18,06,39,14.30
2018,02,18,06,40,18.70
2018,02,18,06,41,9.50
2018,02,18,06,42,5.90
2018,02,18,06,43,7.20
2018,02,18,06,44,5.80
2018,02,18,06,45,10.10
2018,02,18,06,46,10.40
2018,02,18,06,47,9.90
2018,02,18,06,48,13.40
2018,02,18,06,49,16.60
2018,02,18,06,50,11.50
2018,02,18,06,51,8.00
2018,02,18,06,52,15.70
2018,02,18,06,53,11.50
2018,02,18,06,54,7.20
2018,02,18,06,55,8.20
2018,02,18,06,56,11.00
2018,02,18,06,57,9.40
2018,02,18,06,58,7.10
2018,02,18,06,59,8.90
2018,02,18,07,00,9.90
2018,02,18,07,01,13.10
2018,02,18,07,02,10.50
2018,02,18,07,03,10.30
2018,02,18,07,04,9.50
2018,02,18,07,05,6.20
2018,02,18,07,06,5.60
2018,02,18,07,07,1.40
2018,02,18,07,08,0.20
2018,02,18,07,09,3.20
2018,02,18,07,10,15.40
2018,02,18,07,11,14.50
2018,02,18,07,12,13.90
2018,02,18,07,13,15.90
2018,02,18,07,14,9.50
2018,02,18,07,15,7.30
2018,02,18,07,16,5.60
2018,02,18,07,17,8.90
2018,02,18,07,18,8.20
2018,02,18,07,19,7.00
2018,02,18,07,20,1.20
2018,02,18,07,21,0.30
2018,02,18,07,22,5.50
2018,02,18,07,23,8.30
2018,02,18,07,24,12.70
2018,02,18,07,25,12.10
2018,02,18,07,26,14.20
2018,02,18,07,27,9.60
2018,02,18,07,28,11.30
2018,02,18,07,29,9.30
2018,02,18,07,30,7.80
2018,02,18,07,31,13.50
2018,02,18,07,32,15.50
2018,02,18,07,33,8.30
2018,02,18,07,34,5.70
2018,02,18,07,35,9.10
2018,02,18,07,36,12.00
2018,02,18,07,37,13.60
2018,02,18,07,38,15.10
2018,02,18,07,39,8.70
2018,02,18,07,40,5.50
2018,02,18,07,41,3.30
2018,02,18,07,42,7.40
2018,02,18,07,43,7.80
2018,02,18,07,44,9.70
2018,02,18,07,45,9.90
2018,02,18,07,46,4.80
2018,02,18,07,47,6.40
2018,02,18,07,48,9.60
2018,02,18,07,49,7.60
2018,02,18,07,50,8.70
2018,02,18,07,51,9.00
2018,02,18,07,52,10.20
2018,02,18,07,53,7.80
2018,02,18,07,54,10.80
2018,02,18,07,55,10.60
2018,02,18,07,56,8.80
2018,02,18,07,57,9.20
2018,02,18,07,58,11.50
2018,02,18,07,59,3.10
2018,02,18,08,00,0.10
2018,02,18,08,01,4.30
2018,02,18,08,02,9.70
2018,02,18,08,03,10.50
2018,02,18,08,04,2.00
2018,02,18,08,05,0.70
2018,02,18,08,06,3.60
2018,02,18,08,07,5.20
2018,02,18,08,08,9.10
2018,02,18,08,09,15.20
2018,02,18,08,10,10.80
2018,02,18,08,11,5.80
2018,02,18,08,12,6.40
2018,02,18,08,13,5.70
2018,02,18,08,14,9.50
2018,02,18,08,15,9.00
2018,02,18,08,16,6.10
2018,02,18,08,17,7.80
2018,02,18,08,18,13.40
2018,02,18,08,19,14.00
2018,02,18,08,20,7.70
2018,02,18,08,21,2.20
2018,02,18,08,22,0.00
2018,02,18,08,23,4.00
2018,02,18,08,24,13.90
2018,02,18,08,25,11.00
2018,02,18,08,26,7.60
2018,02,18,08,27,5.90
2018,02,18,08,28,8.00
2018,02,18,08,29,9.00
2018,02,18,08,30,11.00
2018,02,18,08,31,8.10
2018,02,18,08,32,12.90
2018,02,18,08,33,14.50
2018,02,18,08,34,14.50
2018,02,18,08,35,14.50
2018,02,18,08,36,14.50
2018,02,18,08,37,4.90
2018,02,18,08,38,11.20
2018,02,18,08,39,11.90
2018,02,18,08,40,8.80
2018,02,18,08,41,5.00
2018,02,18,08,42,2.90
2018,02,18,08,43,6.40
2018,02,18,08,44,8.00
2018,02,18,08,45,9.00
2018,02,18,08,46,7.30
2018,02,18,08,47,9.40
2018,02,18,08,48,13.70
2018,02,18,08,49,6.70
2018,02,18,08,50,5.80
2018,02,18,08,51,4.80
2018,02,18,08,52,2.00
2018,02,18,08,53,3.00
2018,02,18,08,54,1.70
2018,02,18,08,55,0.40
2018,02,18,08,56,0.30
2018,02,18,08,57,9.60
2018,02,18,08,58,5.50
2018,02,18,08,59,7.60
2018,02,18,09,00,10.70
2018,02,18,09,01,6.10
2018,02,18,09,02,3.40
2018,02,18,09,03,0.00
2018,02,18,09,04,0.00
2018,02,18,09,05,11.30
2018,02,18,09,06,3.20
2018,02,18,09,07,4.40
2018,02,18,09,08,10.40
2018,02,18,09,09,7.60
2018,02,18,09,10,7.00
2018,02,18,09,11,1.60
2018,02,18,09,12,0.60
2018,02,18,09,13,7.50
2018,02,18,09,14,9.90
2018,02,18,09,15,6.40
2018,02,18,09,16,2.50
2018,02,18,09,17,6.10
2018,02,18,09,18,5.90
2018,02,18,09,19,3.10
2018,02,18,09,20,8.00
2018,02,18,09,21,0.60
2018,02,18,09,22,3.40
2018,02,18,09,23,6.80
2018,02,18,09,24,4.20
2018,02,18,09,25,8.30
2018,02,18,09,26,6.70
2018,02,18,09,27,5.00
2018,02,18,09,28,6.20
2018,02,18,09,29,6.70
2018,02,18,09,30,5.80
2018,02,18,09,31,1.50
2018,02,18,09,32,0.10
2018,02,18,09,33,6.10
2018,02,18,09,34,7.30
2018,02,18,09,35,12.30
2018,02,18,09,36,8.40
2018,02,18,09,37,9.00
2018,02,18,09,38,4.00
2018,02,18,09,39,7.60
2018,02,18,09,40,11.10
2018,02,18,09,41,14.00
2018,02,18,09,42,5.60
2018,02,18,09,43,1.70
2018,02,18,09,44,12.00
2018,02,18,09,45,6.70
2018,02,18,09,46,2.80
2018,02,18,09,47,6.70
2018,02,18,09,48,7.80
2018,02,18,09,49,11.30
2018,02,18,09,50,13.70
2018,02,18,09,51,13.50
2018,02,18,09,52,17.70
2018,02,18,09,53,6.20
2018,02,18,09,54,10.70
2018,02,18,09,55,10.40
2018,02,18,09,56,7.20
2018,02,18,09,57,12.80
2018,02,18,09,58,16.30
2018,02,18,09,59,17.30
2018,02,18,10,00,6.60
2018,02,18,10,01,11.30
2018,02,18,10,02,13.90
2018,02,18,10,03,12.10
2018,02,18,10,04,12.00
2018,02,18,10,05,8.70
2018,02,18,10,06,9.30
2018,02,18,10,07,13.00
2018,02,18,10,08,23.90
2018,02,18,10,09,13.00
2018,02,18,10,10,8.40
2018,02,18,10,11,12.00
2018,02,18,10,12,12.00
2018,02,18,10,13,8.20
2018,02,18,10,14,6.50
2018,02,18,10,15,3.20
2018,02,18,10,16,0.10
2018,02,18,10,17,4.30
2018,02,18,10,18,1.50
2018,02,18,10,19,0.40
2018,02,18,10,20,0.00
2018,02,18,10,21,2.50
2018,02,18,10,22,3.00
2018,02,18,10,23,2.30
2018,02,18,10,24,3.10
2018,02,18,10,25,0.80
2018,02,18,10,26,2.80
2018,02,18,10,27,6.70
2018,02,18,10,28,10.20
2018,02,18,10,29,5.90
2018,02,18,10,30,3.10
2018,02,18,10,31,8.10
2018,02,18,10,32,10.20
2018,02,18,10,33,6.40
2018,02,18,10,34,5.70
2018,02,18,10,35,0.10
2018,02,18,10,36,2.10
2018,02,18,10,37,0.90
2018,02,18,10,38,6.80
2018,02,18,10,39,6.40
2018,02,18,10,40,5.30
2018,02,18,10,41,7.60
2018,02,18,10,42,10.10
2018,02,18,10,43,5.60
2018,02,18,10,44,9.50
2018,02,18,10,45,8.20
2018,02,18,10,46,6.70
2018,02,18,10,47,4.10
2018,02,18,10,48,2.90
2018,02,18,10,49,5.30
2018,02,18,10,50,4.80
2018,02,18,10,51,2.50
2018,02,18,10,52,0.00
2018,02,18,10,53,3.70
2018,02,18,10,54,9.10
2018,02,18,10,55,4.90
2018,02,18,10,56,0.50
2018,02,18,10,57,10.90
2018,02,18,10,58,12.60
2018,02,18,10,59,10.90
2018,02,18,11,00,9.00
2018,02,18,11,01,9.80
2018,02,18,11,02,4.80
2018,02,18,11,03,6.60
2018,02,18,11,04,2.00
2018,02,18,11,05,3.70
2018,02,18,11,06,10.80
2018,02,18,11,07,14.10
2018,02,18,11,08,11.40
2018,02,18,11,09,14.80
2018,02,18,11,10,15.40
2018,02,18,11,11,5.10
2018,02,18,11,12,5.70
2018,02,18,11,13,0.00
2018,02,18,11,14,9.10
2018,02,18,11,15,14.80
2018,02,18,11,16,13.20
2018,02,18,11,17,9.50
2018,02,18,11,18,17.00
2018,02,18,11,19,14.20
2018,02,18,11,20,13.00
2018,02,18,11,21,24.40
2018,02,18,11,22,20.90
2018,02,18,11,23,17.30
2018,02,18,11,24,8.40
2018,02,18,11,25,10.70
2018,02,18,11,26,13.60
2018,02,18,11,27,13.70
2018,02,18,11,28,12.30
2018,02,18,11,29,15.90
2018,02,18,11,30,5.50
2018,02,18,11,31,3.50
2018,02,18,11,32,4.80
2018,02,18,11,33,8.50
2018,02,18,11,34,10.00
2018,02,18,11,35,4.80
2018,02,18,11,36,6.30
2018,02,18,11,37,9.00
2018,02,18,11,38,15.30
2018,02,18,11,39,6.90
2018,02,18,11,40,13.90
2018,02,18,11,41,13.80
2018,02,18,11,42,14.50
2018,02,18,11,43,7.80
2018,02,18,11,44,8.90
2018,02,18,11,45,7.60
2018,02,18,11,46,7.40
2018,02,18,11,47,11.20
2018,02,18,11,48,4.80
2018,02,18,11,49,5.10
2018,02,18,11,50,4.00
2018,02,18,11,51,3.10
2018,02,18,11,52,11.10
2018,02,18,11,53,19.10
2018,02,18,11,54,17.80
2018,02,18,11,55,4.10
2018,02,18,11,56,11.90
2018,02,18,11,57,14.20
2018,02,18,11,58,17.80
2018,02,18,11,59,24.40
2018,02,18,12,00,12.00
2018,02,18,12,01,10.20
2018,02,18,12,02,21.40
2018,02,18,12,03,10.40
2018,02,18,12,04,25.10
2018,02,18,12,05,14.60
2018,02,18,12,06,23.00
2018,02,18,12,07,14.10
2018,02,18,12,08,23.70
2018,02,18,12,09,10.50
2018,02,18,12,10,8.00
2018,02,18,12,11,10.70
2018,02,18,12,12,11.30
2018,02,18,12,13,11.80
2018,02,18,12,14,17.90
2018,02,18,12,15,13.10
2018,02,18,12,16,13.50
2018,02,18,12,17,17.80
2018,02,18,12,18,11.60
2018,02,18,12,19,7.50
2018,02,18,12,20,9.10
2018,02,18,12,21,13.80
2018,02,18,12,22,18.80
2018,02,18,12,23,15.10
2018,02,18,12,24,15.40
2018,02,18,12,25,13.00
2018,02,18,12,26,12.20
2018,02,18,12,27,20.60
2018,02,18,12,28,32.60
2018,02,18,12,29,18.10
2018,02,18,12,30,12.10
2018,02,18,12,31,13.00
2018,02,18,12,32,17.80
2018,02,18,12,33,21.70
2018,02,18,12,34,18.30
2018,02,18,12,35,17.30
2018,02,18,12,36,13.00
2018,02,18,12,37,17.30
2018,02,18,12,38,13.60
2018,02,18,12,39,11.30
2018,02,18,12,40,14.40
2018,02,18,12,41,19.50
2018,02,18,12,42,15.70
2018,02,18,12,43,11.40
2018,02,18,12,44,8.50
2018,02,18,12,45,3.20
2018,02,18,12,46,4.20
2018,02,18,12,47,13.20
2018,02,18,12,48,8.50
2018,02,18,12,49,2.60
2018,02,18,12,50,9.90
2018,02,18,12,51,14.80
2018,02,18,12,52,13.00
2018,02,18,12,53,18.10
2018,02,18,12,54,18.90
2018,02,18,12,55,17.10
2018,02,18,12,56,11.60
2018,02,18,12,57,14.80
2018,02,18,12,58,7.20
2018,02,18,12,59,7.80
2018,02,18,13,00,5.80
2018,02,18,13,01,2.30
2018,02,18,13,02,3.40
2018,02,18,13,03,9.70
2018,02,18,13,04,8.80
2018,02,18,13,05,9.80
2018,02,18,13,06,16.30
2018,02,18,13,07,13.70
2018,02,18,13,08,9.70
2018,02,18,13,09,9.20
2018,02,18,13,10,9.70
2018,02,18,13,11,6.00
2018,02,18,13,12,8.10
2018,02,18,13,13,7.40
2018,02,18,13,14,14.30
2018,02,18,13,15,14.20
2018,02,18,13,16,6.10
2018,02,18,13,17,6.10
2018,02,18,13,18,5.30
2018,02,18,13,19,15.50
2018,02,18,13,20,20.90
2018,02,18,13,21,15.70
2018,02,18,13,22,15.30
2018,02,18,13,23,15.30
2018,02,18,13,24,20.10
2018,02,18,13,25,16.50
2018,02,18,13,26,5.60
2018,02,18,13,27,3.50
2018,02,18,13,28,23.80
2018,02,18,13,29,22.20
2018,02,18,13,30,16.00
2018,02,18,13,31,9.70
2018,02,18,13,32,16.10
2018,02,18,13,33,6.30
2018,02,18,13,34,4.20
2018,02,18,13,35,8.00
2018,02,18,13,36,5.80
2018,02,18,13,37,11.00
2018,02,18,13,38,15.40
2018,02,18,13,39,11.80
2018,02,18,13,40,17.00
2018,02,18,13,41,13.70
2018,02,18,13,42,12.10
2018,02,18,13,43,13.90
2018,02,18,13,44,18.90
2018,02,18,13,45,23.20
2018,02,18,13,46,12.50
2018,02,18,13,47,10.00
2018,02,18,13,48,6.40
2018,02,18,13,49,9.30
2018,02,18,13,50,17.70
2018,02,18,13,51,16.20
2018,02,18,13,52,13.80
2018,02,18,13,53,11.70
2018,02,18,13,54,14.60
2018,02,18,13,55,21.10
2018,02,18,13,56,12.50
2018,02,18,13,57,16.90
2018,02,18,13,58,14.80
2018,02,18,13,59,15.10
2018,02,18,14,00,11.80
2018,02,18,14,01,7.80
2018,02,18,14,02,11.30
2018,02,18,14,03,9.40
2018,02,18,14,04,14.60
2018,02,18,14,05,16.30
2018,02,18,14,06,7.50
2018,02,18,14,07,5.50
2018,02,18,14,08,4.50
2018,02,18,14,09,3.70
2018,02,18,14,10,10.80
2018,02,18,14,11,5.60
2018,02,18,14,12,5.10
2018,02,18,14,13,5.00
2018,02,18,14,14,11.90
2018,02,18,14,15,23.00
2018,02,18,14,16,10.80
2018,02,18,14,17,7.10
2018,02,18,14,18,15.50
2018,02,18,14,19,20.40
2018,02,18,14,20,17.10
2018,02,18,14,21,14.90
2018,02,18,14,22,11.10
2018,02,18,14,23,10.70
2018,02,18,14,24,10.40
2018,02,18,14,25,9.40
2018,02,18,14,26,11.00
2018,02,18,14,27,10.40
2018,02,18,14,28,11.60
2018,02,18,14,29,12.20
2018,02,18,14,30,19.10
2018,02,18,14,31,14.00
2018,02,18,14,32,10.20
2018,02,18,14,33,10.20
2018,02,18,14,34,10.00
2018,02,18,14,35,10.30
2018,02,18,14,36,13.60
2018,02,18,14,37,12.20
2018,02,18,14,38,12.40
2018,02,18,14,39,10.10
2018,02,18,14,40,11.30
2018,02,18,14,41,9.60
2018,02,18,14,42,7.10
2018,02,18,14,43,11.30
2018,02,18,14,44,6.20
2018,02,18,14,45,4.40
2018,02,18,14,46,6.60
2018,02,18,14,47,9.00
2018,02,18,14,48,12.20
2018,02,18,14,49,6.40
2018,02,18,14,50,4.60
2018,02,18,14,51,12.30
2018,02,18,14,52,14.90
2018,02,18,14,53,9.80
2018,02,18,14,54,6.30
2018,02,18,14,55,3.50
2018,02,18,14,56,10.10
2018,02,18,14,57,15.30
2018,02,18,14,58,9.70
2018,02,18,14,59,6.50
2018,02,18,15,00,2.60
2018,02,18,15,01,5.40
2018,02,18,15,02,13.50
2018,02,18,15,03,16.40
2018,02,18,15,04,15.40
2018,02,18,15,05,15.90
2018,02,18,15,06,13.60
2018,02,18,15,07,13.30
2018,02,18,15,08,13.50
2018,02,18,15,09,17.20
2018,02,18,15,10,23.60
2018,02,18,15,11,11.40
2018,02,18,15,12,9.50
2018,02,18,15,13,11.90
2018,02,18,15,14,7.30
2018,02,18,15,15,8.50
2018,02,18,15,16,11.90
2018,02,18,15,17,6.20
2018,02,18,15,18,5.20
2018,02,18,15,19,4.70
2018,02,18,15,20,2.50
2018,02,18,15,21,2.10
2018,02,18,15,22,4.00
2018,02,18,15,23,9.40
2018,02,18,15,24,14.10
2018,02,18,15,25,12.90
2018,02,18,15,26,6.40
2018,02,18,15,27,12.00
2018,02,18,15,28,5.00
2018,02,18,15,29,9.50
2018,02,18,15,30,9.80
2018,02,18,15,31,17.60
2018,02,18,15,32,16.10
2018,02,18,15,33,6.80
2018,02,18,15,34,4.10
2018,02,18,15,35,4.70
2018,02,18,15,36,11.30
2018,02,18,15,37,17.20
2018,02,18,15,38,16.20
2018,02,18,15,39,14.90
2018,02,18,15,40,10.80
2018,02,18,15,41,8.20
2018,02,18,15,42,6.10
2018,02,18,15,43,12.70
2018,02,18,15,44,11.80
2018,02,18,15,45,12.70
2018,02,18,15,46,15.00
2018,02,18,15,47,4.00
2018,02,18,15,48,7.40
2018,02,18,15,49,18.30
2018,02,18,15,50,9.70
2018,02,18,15,51,12.40
2018,02,18,15,52,12.60
2018,02,18,15,53,18.10
2018,02,18,15,54,16.80
2018,02,18,15,55,11.30
2018,02,18,15,56,11.80
2018,02,18,15,57,15.00
2018,02,18,15,58,11.20
2018,02,18,15,59,14.20
2018,02,18,16,00,13.90
2018,02,18,16,01,11.10
2018,02,18,16,02,14.60
2018,02,18,16,03,17.60
2018,02,18,16,04,7.10
2018,02,18,16,05,9.90
2018,02,18,16,06,16.80
2018,02,18,16,07,14.30
2018,02,18,16,08,12.80
2018,02,18,16,09,9.60
2018,02,18,16,10,12.00
2018,02,18,16,11,14.50
2018,02,18,16,12,19.10
2018,02,18,16,13,13.30
2018,02,18,16,14,13.80
2018,02,18,16,15,15.70
2018,02,18,16,16,15.10
2018,02,18,16,17,12.50
2018,02,18,16,18,15.90
2018,02,18,16,19,15.30
2018,02,18,16,20,11.50
2018,02,18,16,21,8.10
2018,02,18,16,22,13.00
2018,02,18,16,23,16.70
2018,02,18,16,24,11.30
2018,02,18,16,25,15.60
2018,02,18,16,26,9.80
2018,02,18,16,27,10.60
2018,02,18,16,28,12.70
2018,02,18,16,29,12.90
2018,02,18,16,30,5.60
2018,02,18,16,31,12.60
2018,02,18,16,32,17.20
2018,02,18,16,33,19.50
2018,02,18,16,34,9.70
2018,02,18,16,35,12.00
2018,02,18,16,36,5.30
2018,02,18,16,37,9.10
2018,02,18,16,38,13.00
2018,02,18,16,39,11.60
2018,02,18,16,40,10.30
2018,02,18,16,41,9.20
2018,02,18,16,42,11.80
2018,02,18,16,43,11.90
2018,02,18,16,44,8.30
2018,02,18,16,45,3.90
2018,02,18,16,46,4.70
2018,02,18,16,47,3.10
2018,02,18,16,48,6.20
2018,02,18,16,49,8.60
2018,02,18,16,50,5.40
2018,02,18,16,51,12.10
2018,02,18,16,52,3.30
2018,02,18,16,53,3.70
2018,02,18,16,54,11.00
2018,02,18,16,55,5.60
2018,02,18,16,56,8.10
2018,02,18,16,57,7.90
2018,02,18,16,58,10.00
2018,02,18,16,59,12.80
2018,02,18,17,00,10.90
2018,02,18,17,01,5.30
2018,02,18,17,02,5.70
2018,02,18,17,03,10.50
2018,02,18,17,04,7.70
2018,02,18,17,05,5.60
2018,02,18,17,06,9.90
2018,02,18,17,07,4.40
2018,02,18,17,08,5.10
2018,02,18,17,09,4.90
2018,02,18,17,10,5.80
2018,02,18,17,11,8.10
2018,02,18,17,12,5.90
2018,02,18,17,13,10.40
2018,02,18,17,14,5.50
2018,02,18,17,15,7.10
2018,02,18,17,16,6.10
2018,02,18,17,17,4.50
2018,02,18,17,18,2.90
2018,02,18,17,19,6.50
2018,02,18,17,20,8.20
2018,02,18,17,21,3.30
2018,02,18,17,22,0.40
2018,02,18,17,23,3.70
2018,02,18,17,24,9.50
2018,02,18,17,25,10.80
2018,02,18,17,26,2.60
2018,02,18,17,27,2.80
2018,02,18,17,28,8.50
2018,02,18,17,29,7.10
2018,02,18,17,30,9.20
2018,02,18,17,31,10.50
2018,02,18,17,32,9.10
2018,02,18,17,33,6.70
2018,02,18,17,34,3.40
2018,02,18,17,35,7.50
2018,02,18,17,36,9.70
2018,02,18,17,37,7.70
2018,02,18,17,38,10.30
2018,02,18,17,39,9.20
2018,02,18,17,40,11.80
2018,02,18,17,41,10.80
2018,02,18,17,42,14.50
2018,02,18,17,43,12.40
2018,02,18,17,44,7.10
2018,02,18,17,45,4.10
2018,02,18,17,46,7.50
2018,02,18,17,47,11.60